パンスターズ彗星

P/2016 A3 ( PanSTARRS )

English version
Home page
Updated on August 28, 2018

---------------------------------------------------------------------

・ プロフィール

発見日 2016年1月4日
発見光度 20.5等
発見者 Pan-STARRS 1 telescope (Haleakala)

・ 写真集

・ 軌道要素

Epoch 2017 Mar. 28.0 TT = JDT 2457840.5
T 2017 Apr. 13.59540 TT                                 MPCW
q   4.7894980            (2000.0)            P               Q
n   0.04592675     Peri.  338.47192     -0.97085104     -0.23882537
a   7.7225178      Node   187.79442     +0.23588521     -0.93705053
e   0.3798010      Incl.    8.59397     +0.04250206     -0.25475235
P  21.46
From 129 observations 2016 Jan. 4-2018 May 19, mean residual 0".4.

・ 光度変化

        m1 = 2.0 + 5 logΔ + 20.0 log r

---------------------------------------------------------------------

軌道要素はM.P.E.C. 2018-K95に掲載されたものです。
光度グラフはComet for Windowsで作成したものです。

---------------------------------------------------------------------

Copyright(C) Seiichi Yoshida (comet@aerith.net). All rights reserved.